Simultaneous Nadir Overpasses (SNOs) Predictions

Prediction of SNOs between GOES-15 and TERRA Satellite Orbit:

Table of predicted SNOs for the next 14.0 days since TLE Epoch: 1/8/2022
Index Date Time (GOES-15) GOES-15 Lat,Lon TERRA Lat,Lon Distance(km) Time Diff (sec)
1 01/09/2022 06:59:18 0.03,-128.29 -0.02,-128.57 31.53 80
2 01/11/2022 06:44:23 0.03,-128.32 0.61,-125.61 307.98 80
3 01/11/2022 19:08:17 -0.02,-128.33 0.52,-130.76 276.61 80
4 01/13/2022 18:53:23 -0.03,-128.36 -0.17,-127.81 62.27 80
5 01/15/2022 18:41:07 -0.03,-128.37 -0.75,-124.84 400.39 80
6 01/16/2022 07:05:11 0.02,-128.37 -0.31,-130.04 190.26 80
7 01/18/2022 06:50:15 0.02,-128.38 0.27,-127.07 147.38 80
8 01/18/2022 19:14:10 -0.02,-128.38 0.79,-132.24 437.89 80
9 01/20/2022 06:38:00 0.02,-128.38 0.92,-124.12 484.71 80
10 01/20/2022 19:01:55 -0.01,-128.39 0.15,-129.28 100.64 80
